星链-5030 (STARLINK-5030 )

导读 | 星芒AI

STARLINK-5030 是 SpaceX Starlink 项目中的一颗低轨通信卫星,属于第 14 组星链卫星群。该卫星于 2023 年发射,旨在为全球提供高速互联网服务,特别是在网络基础设施薄弱的地区。它运行在约 550 公里的轨道高度,采用先进的相控阵天线和激光通信技术,以提升连接速度和稳定性。Starlink 卫星群的部署是 SpaceX 构建全球宽带网络计划的重要组成部分。

基本信息
目录编号:
55418
目录名称:
STARLINK-5030
国际标识:
2023-014AD
轨道中心:
EARTH
卫星名称:
星链-5030
卫星全名:
星链-5030 (STARLINK-5030 )
卫星状态:
在轨 (已飞行1008 天)
发射日期:
2023-01-31 UTC
国别 :
美国 (US)
星等 :
--
轨道信息
数据来源 国际轨道数据
星历时间: 2025-11-04T20:37:39+0800
10小时前
查看轨道信息
半长轴: 6950.184km
偏心率: 0.0003228
轨道倾角: 70.000°
近地点辐角 270.848°
升交点赤经 40.049°
平近点角 89.231°
近地点: 569.805km
远地点: 574.293km
周期: 96.107分钟
每日圈数: 14.983329
详细信息
固有亮度:
5
最大亮度:
2.5
卫星平台:
Starlink v1.5
覆盖范围:
全球
运营商:
太空探索技术公司
运营商所在国:
美国
制造商(研发单位):
太空探索技术公司
制造商所在国:
美国
使用方式:
暂无
卫星简介
星链(Starlink)计划是由太空探索技术公司(SpaceX)提出的一个巨型低轨卫星互联网星座项目,计划在2019年至2024年间在太空搭建由约1.2万颗卫星组成的“星链”网络,其中1584颗将部署在地球上空550千米处的近地轨道,并从2020年开始工作。该卫星仍在工作。
2D轨道图
3D轨道图
轨道高度分析图
轨道倾角分析图
轨道综合分析图
查看轨道综合分析图